Wind_Speed
7 7 8 8 8 9 10 13 15 15 8 16 16 17 15 6 9 9 9 9 8 6 8 7 11 14 16 15 17 17 16 17 19 16 17 15 16 15 16 13 16 14 12 12
7 5 6 6 6 9 15 14 12 12 17 15 18 19 14 8 7 6 5 7 8 6 6 4 1 9 15 16 17 19 18 18 20 18 17 16 17 17 21 18 21 23 17 17
5 7 6 6 6 10 14 8 13 17 18 15 12 12 10 6 13 8 6 5 5 4 6 5 5 8 13 17 18 19 20 20 21 24 20 21 22 26 20 21 21 19 23 20
5 3 5 8 6 10 10 13 16 17 14 9 15 7 5 11 11 10 8 6 4 5 5 6 5 8 10 16 20 22 20 22 23 25 27 25 25 24 24 21 25 28 25 19
4 5 7 10 6 9 10 16 19 20 14 10 4 5 11 7 8 11 11 7 5 5 7 9 11 11 15 14 15 19 22 21 24 26 28 31 33 31 28 25 22 21 19 19
3 1 2 7 11 13 12 17 20 4 0 3 6 2 10 6 4 5 4 6 8 7 9 10 13 14 14 17 16 19 23 24 25 27 30 34 34 35 28 27 26 24 22 20
6 7 5 4 12 10 15 13 4 4 2 4 14 10 11 16 0 3 7 9 5 6 8 9 15 17 16 16 18 20 23 27 28 29 32 34 38 34 35 32 29 26 23 21
6 3 2 6 4 6 14 7 2 4 4 10 18 6 7 4 5 6 3 3 13 8 9 18 16 13 15 14 17 20 26 29 30 31 33 34 35 36 30 28 23 23 23 21
6 2 7 3 3 5 6 4 6 5 9 4 5 13 14 6 7 10 11 14 6 11 13 15 14 15 16 16 19 24 31 32 31 35 35 33 29 30 30 23 21 22 16 10
4 7 9 2 9 13 7 7 3 1 3 6 8 15 10 13 17 21 17 14 18 16 21 18 16 15 19 25 27 28 30 29 34 32 28 25 27 26 24 19 18 13 16 20
6 2 8 13 2 11 3 6 6 8 5 4 6 6 11 22 24 12 19 25 26 19 15 14 13 16 18 25 24 31 33 30 31 30 28 26 25 21 19 20 15 20 15 19
6 4 5 18 17 3 5 8 8 3 8 9 12 14 17 13 9 34 29 21 22 18 15 19 24 24 23 21 28 42 32 30 27 25 22 23 19 17 16 13 12 17 17 20
9 3 5 8 5 3 12 19 18 16 2 8 7 10 12 26 27 29 26 23 24 18 19 28 32 21 22 30 45 36 30 26 22 17 14 14 14 12 12 16 20 23 16 23
2 6 6 8 15 18 19 22 24 20 12 17 15 28 21 20 20 20 18 22 23 24 28 30 24 26 26 38 38 29 28 25 19 13 11 11 11 12 15 18 15 16 21 21
3 6 11 17 19 20 23 25 24 23 21 19 24 22 23 19 18 17 21 23 28 29 27 27 35 34 33 34 31 25 26 21 15 12 12 13 15 19 19 15 14 19 23 28
4 4 3 7 19 20 19 22 25 25 22 21 20 21 16 24 21 23 28 31 28 22 24 33 31 36 37 32 27 22 20 15 13 13 16 21 14 12 13 15 18 25 27 27
14 3 2 8 9 11 11 14 16 13 17 17 16 21 18 15 18 23 31 28 18 24 30 30 34 37 31 26 21 23 17 15 17 19 20 11 10 10 14 17 22 24 28 27
10 4 3 3 3 6 7 20 24 20 16 17 19 21 15 18 30 30 25 21 25 25 37 38 37 31 26 27 29 33 26 15 18 13 10 7 9 12 16 20 23 25 27 29
8 5 2 3 8 17 16 17 13 19 13 16 10 18 30 32 31 26 17 24 33 37 32 35 30 27 27 29 34 27 20 19 9 8 6 8 11 14 19 21 22 27 29 28
9 8 1 3 13 15 2 18 27 14 15 14 18 22 25 21 13 11 29 27 27 24 27 26 27 28 37 31 17 6 7 7 8 8 8 10 13 15 18 21 26 27 24 27
2 3 6 10 10 10 14 19 15 7 5 26 23 25 27 14 15 31 36 28 25 25 26 24 22 35 19 9 5 7 9 12 7 7 10 12 13 17 19 22 24 24 27 30
8 6 4 5 5 11 5 13 5 18 29 33 28 26 29 30 30 27 28 21 29 26 26 21 30 16 8 6 7 8 8 2 5 13 13 13 15 18 21 21 24 25 27 25
5 7 7 9 7 29 40 38 31 45 36 37 33 35 24 30 31 28 26 25 20 22 19 28 13 8 8 9 6 6 8 11 15 14 13 17 20 21 18 24 22 23 22 25
6 19 12 16 19 30 38 44 41 37 34 32 31 26 31 27 28 30 25 21 19 18 26 15 7 7 9 7 6 6 8 12 14 16 17 20 20 20 23 21 19 21 24 27
8 11 12 21 29 33 32 31 37 39 37 22 27 21 22 27 30 27 21 20 19 26 14 7 7 9 10 6 5 6 10 13 16 18 20 18 19 22 20 18 19 20 22 25
12 15 10 17 33 29 38 40 40 29 20 21 21 23 26 27 23 20 21 26 21 12 7 7 9 9 8 5 6 8 10 16 20 21 20 20 19 17 17 20 21 21 20 23
Wind_Direction
316 297 35 4 4 335 314 300 315 357 351 323 310 299 284 325 2 15 5 4 5 323 302 304 212 219 237 232 250 245 243 243 242 238 237 240 238 236 240 236 236 246 233 259
257 78 40 329 315 342 316 320 348 321 333 312 296 289 284 90 74 39 43 72 41 19 353 352 321 246 244 249 247 257 252 249 249 248 248 248 254 256 252 242 246 241 248 239
316 52 346 322 319 350 328 4 335 320 322 303 355 299 196 138 118 123 101 117 108 72 8 1 308 279 268 267 261 256 258 252 252 256 249 255 251 244 238 238 236 249 264 242
17 60 329 307 308 360 313 7 325 310 320 326 314 290 271 161 137 155 143 95 77 45 21 356 331 305 297 281 264 265 262 254 253 255 258 253 252 253 254 258 260 258 257 245
75 325 336 308 18 330 301 320 293 286 282 314 323 281 48 153 183 166 159 117 88 23 359 343 335 332 320 288 287 277 272 260 254 250 258 256 253 246 246 243 255 254 235 229
317 49 309 357 314 291 297 312 305 265 148 280 321 324 300 345 51 68 98 51 46 16 349 334 327 325 327 328 300 290 278 276 270 268 257 256 256 255 249 254 251 247 247 245
295 163 108 342 324 322 352 343 336 347 206 245 20 315 265 291 206 103 51 28 14 300 293 331 319 314 315 308 307 302 286 282 275 271 270 262 258 257 257 252 256 256 246 241
340 294 15 39 11 318 304 340 306 307 317 315 320 266 323 329 135 120 137 272 268 277 325 327 326 321 319 324 326 311 293 287 286 281 274 266 260 254 255 256 252 241 236 238
343 349 1 61 337 327 345 326 346 293 246 268 250 284 314 335 82 77 317 279 15 333 326 333 328 328 331 330 322 311 299 297 290 283 290 276 260 249 244 245 240 240 256 251
12 296 306 312 273 235 242 341 322 156 284 295 303 305 267 327 344 340 332 3 351 338 349 332 330 326 325 330 322 320 312 299 296 292 287 272 255 240 235 222 230 243 265 279
351 275 300 326 232 345 300 281 251 248 292 278 292 250 318 314 303 315 345 319 318 310 316 326 320 330 328 326 319 321 314 298 292 284 279 268 253 237 234 235 237 264 264 268
64 288 290 289 277 332 280 279 291 261 284 290 297 281 277 286 338 330 320 331 336 343 348 353 340 327 331 328 318 319 312 300 290 284 271 252 244 234 236 231 248 278 282 287
358 312 309 337 125 175 324 315 307 301 256 251 260 270 292 308 296 301 326 348 345 353 356 344 332 337 328 323 317 319 311 303 284 269 253 249 252 225 220 248 262 288 284 276
321 268 280 279 292 303 310 313 309 302 292 293 270 289 296 303 310 326 355 2 347 341 333 336 344 339 330 319 319 312 313 300 278 255 240 246 244 239 262 281 262 276 282 284
226 260 274 283 294 308 302 291 285 282 288 288 295 292 301 312 321 13 357 349 337 331 340 345 332 326 321 318 317 311 313 290 272 247 243 249 251 256 281 265 284 280 282 290
178 246 280 273 290 294 305 302 287 288 288 281 288 290 314 335 359 356 345 337 335 336 335 331 323 317 314 317 312 311 311 293 273 243 254 262 269 269 262 280 277 286 291 290
275 206 170 281 299 330 290 259 269 272 299 289 301 310 326 336 358 341 331 326 342 333 331 324 313 319 311 318 300 323 309 276 258 258 271 280 278 270 274 278 290 290 293 297
261 130 141 287 332 241 254 317 308 299 303 303 306 298 325 341 339 335 335 345 331 322 321 315 315 312 308 307 302 305 293 275 278 260 289 289 274 274 279 286 289 296 295 296
249 137 189 257 261 282 288 275 327 313 299 300 337 349 334 325 322 316 324 329 322 312 309 315 310 308 303 308 307 304 290 276 306 297 262 278 275 281 287 292 296 294 298 304
50 69 289 279 287 295 324 312 297 306 279 19 346 313 307 342 315 309 316 317 307 309 313 311 304 300 312 316 317 337 335 307 289 285 263 262 287 294 298 297 296 306 308 303
50 321 249 259 268 271 280 291 355 290 332 307 331 332 328 315 305 308 313 317 314 315 313 314 303 317 323 319 299 316 305 299 277 255 292 301 301 300 300 300 306 306 305 304
297 298 259 238 244 280 282 335 331 313 313 330 323 315 304 302 307 318 318 314 324 316 315 296 318 318 312 321 311 325 330 307 294 319 314 308 303 299 304 310 305 311 312 316
256 218 265 259 270 288 299 301 314 318 317 322 309 315 319 324 320 319 318 321 312 314 302 321 314 299 315 324 309 316 301 302 317 321 310 301 305 314 309 314 313 318 319 316
253 259 261 289 277 284 298 298 300 300 316 312 312 332 327 321 327 325 318 320 323 304 318 325 299 324 326 317 289 274 284 314 321 316 311 316 321 314 314 316 322 318 319 321
253 294 271 274 275 290 288 292 299 302 306 318 324 332 324 322 321 320 323 323 314 315 327 308 314 317 323 307 284 295 308 317 320 320 319 320 310 315 323 326 322 322 316 323
246 256 257 271 288 286 286 295 297 320 322 335 322 329 330 334 335 331 321 315 317 330 330 314 317 321 320 310 307 310 295 305 317 318 319 321 323 333 328 321 323 317 327 337
Height
1515 1515 1522 1521 1520 1518 1515 1512 1509 1502 1499 1501 1499 1494 1487 1483 1485 1486 1489 1491 1493 1496 1499 1500 1502 1504 1507 1509 1511 1511 1512 1512 1512 1512 1512 1512 1511 1511 1511 1511 1511 1509 1509 1508
1513 1519 1522 1522 1517 1519 1514 1511 1511 1507 1503 1503 1495 1487 1481 1483 1488 1491 1493 1495 1498 1500 1501 1502 1503 1504 1506 1508 1509 1509 1509 1510 1509 1509 1510 1511 1510 1508 1507 1507 1506 1504 1505 1505
1519 1522 1522 1521 1518 1524 1518 1518 1519 1519 1506 1489 1490 1475 1475 1484 1488 1492 1496 1498 1499 1502 1503 1504 1504 1505 1505 1505 1505 1506 1506 1506 1505 1504 1505 1506 1504 1504 1502 1502 1501 1499 1499 1499
1519 1522 1524 1521 1520 1525 1526 1515 1518 1515 1512 1514 1496 1505 1480 1478 1486 1488 1493 1496 1499 1501 1503 1503 1503 1503 1503 1502 1501 1501 1501 1501 1501 1500 1499 1499 1498 1496 1497 1497 1497 1496 1495 1495
1526 1524 1526 1523 1525 1525 1525 1519 1514 1505 1505 1505 1495 1502 1481 1477 1480 1483 1487 1493 1496 1499 1501 1502 1502 1501 1500 1499 1499 1498 1498 1496 1496 1496 1494 1491 1491 1491 1492 1492 1492 1492 1491 1490
1523 1527 1526 1527 1525 1521 1521 1513 1501 1491 1504 1518 1493 1501 1491 1478 1479 1482 1487 1491 1494 1498 1500 1500 1500 1499 1498 1497 1496 1495 1494 1492 1491 1489 1488 1486 1483 1484 1484 1485 1484 1484 1483 1483
1518 1520 1525 1529 1526 1519 1521 1522 1527 1527 1518 1520 1496 1506 1494 1478 1475 1482 1487 1492 1495 1496 1497 1497 1497 1496 1494 1494 1494 1492 1489 1486 1486 1485 1484 1482 1479 1477 1478 1480 1479 1478 1477 1477
1532 1533 1526 1529 1532 1534 1528 1529 1539 1551 1538 1532 1511 1510 1486 1474 1476 1483 1489 1492 1493 1494 1495 1493 1493 1493 1492 1490 1490 1489 1487 1483 1480 1476 1473 1472 1472 1471 1471 1472 1473 1472 1471 1471
1542 1531 1526 1530 1532 1534 1528 1531 1528 1538 1536 1542 1523 1499 1482 1472 1477 1485 1488 1489 1491 1491 1490 1490 1490 1490 1489 1487 1485 1484 1482 1478 1475 1472 1469 1466 1464 1464 1464 1465 1466 1468 1468 1470
1543 1550 1530 1529 1529 1525 1531 1529 1539 1540 1553 1540 1515 1515 1501 1483 1482 1484 1487 1487 1488 1487 1487 1487 1486 1486 1485 1483 1481 1478 1476 1471 1467 1465 1463 1459 1457 1455 1457 1459 1461 1464 1464 1463
1543 1549 1541 1535 1523 1528 1529 1530 1528 1526 1531 1540 1535 1515 1494 1494 1488 1488 1489 1489 1488 1485 1485 1484 1483 1482 1480 1478 1475 1472 1469 1463 1460 1457 1457 1453 1451 1451 1453 1455 1457 1458 1460 1459
1551 1553 1555 1539 1525 1524 1527 1527 1525 1543 1541 1533 1531 1514 1499 1491 1486 1484 1483 1483 1482 1481 1481 1482 1481 1478 1475 1473 1470 1466 1462 1457 1453 1451 1449 1447 1447 1449 1450 1453 1455 1454 1455 1454
1555 1552 1554 1536 1525 1527 1529 1526 1522 1523 1530 1532 1542 1511 1493 1492 1488 1483 1480 1480 1480 1480 1479 1479 1477 1474 1472 1468 1463 1460 1457 1451 1448 1446 1445 1445 1446 1448 1450 1451 1449 1449 1451 1450
1558 1555 1555 1558 1545 1537 1537 1530 1524 1522 1529 1516 1516 1494 1491 1486 1482 1479 1480 1482 1481 1480 1479 1476 1474 1471 1467 1462 1458 1455 1451 1447 1442 1442 1442 1442 1444 1446 1447 1446 1446 1446 1446 1444
1555 1557 1551 1545 1541 1541 1540 1532 1522 1517 1511 1516 1497 1496 1484 1481 1478 1479 1481 1481 1480 1478 1476 1474 1472 1467 1462 1458 1453 1449 1446 1442 1439 1441 1441 1442 1441 1441 1441 1443 1442 1442 1441 1438
1550 1557 1555 1554 1545 1540 1535 1528 1515 1511 1506 1499 1491 1485 1481 1478 1479 1479 1481 1480 1478 1477 1475 1472 1469 1463 1457 1452 1448 1443 1442 1439 1438 1437 1437 1437 1437 1438 1438 1439 1438 1437 1435 1431
1549 1555 1561 1548 1545 1546 1544 1521 1509 1503 1497 1492 1492 1482 1477 1476 1481 1483 1481 1478 1476 1475 1472 1468 1461 1455 1451 1447 1443 1440 1438 1435 1433 1432 1432 1433 1433 1435 1436 1435 1434 1432 1429 1425
1545 1555 1559 1553 1555 1543 1511 1501 1501 1497 1492 1489 1486 1481 1478 1480 1482 1482 1481 1477 1474 1470 1465 1459 1454 1449 1446 1442 1438 1434 1431 1431 1429 1428 1429 1431 1432 1432 1432 1431 1429 1426 1422 1418
1535 1549 1552 1552 1539 1520 1517 1502 1500 1497 1492 1489 1487 1487 1486 1483 1479 1479 1479 1476 1472 1465 1459 1454 1451 1445 1438 1436 1433 1428 1426 1426 1426 1428 1429 1429 1429 1428 1427 1426 1423 1419 1415 1411
1543 1548 1548 1544 1539 1524 1504 1499 1496 1491 1491 1491 1491 1489 1488 1482 1479 1474 1472 1466 1463 1460 1455 1450 1445 1439 1435 1430 1426 1425 1425 1426 1426 1426 1427 1427 1426 1425 1423 1420 1416 1413 1409 1405
1547 1552 1550 1540 1535 1513 1499 1494 1493 1503 1500 1497 1491 1490 1484 1480 1478 1470 1465 1460 1458 1454 1449 1445 1439 1435 1429 1427 1426 1426 1426 1425 1424 1423 1424 1424 1423 1421 1418 1415 1411 1407 1403 1398
1540 1545 1543 1540 1532 1513 1492 1493 1506 1498 1490 1489 1483 1481 1477 1473 1467 1463 1459 1454 1451 1448 1443 1439 1435 1432 1429 1427 1426 1426 1426 1422 1422 1422 1422 1421 1419 1417 1413 1410 1405 1401 1397 1393
1537 1532 1526 1521 1509 1496 1495 1497 1492 1491 1488 1483 1480 1475 1471 1467 1462 1457 1453 1450 1447 1442 1438 1433 1431 1429 1428 1427 1427 1427 1425 1423 1421 1420 1419 1417 1414 1411 1409 1405 1401 1397 1393 1388
1526 1523 1519 1516 1502 1496 1495 1493 1490 1487 1483 1480 1475 1468 1466 1462 1457 1451 1447 1445 1441 1437 1434 1431 1429 1428 1428 1426 1425 1424 1422 1421 1419 1417 1415 1412 1410 1407 1404 1401 1398 1394 1389 1383
1522 1519 1513 1502 1494 1492 1488 1488 1484 1480 1477 1472 1468 1463 1460 1459 1452 1447 1443 1441 1436 1433 1430 1429 1429 1427 1426 1425 1424 1423 1421 1418 1416 1414 1411 1409 1406 1403 1400 1398 1395 1391 1386 1382
1512 1508 1507 1494 1489 1491 1479 1476 1476 1473 1470 1466 1466 1460 1455 1452 1447 1444 1441 1437 1433 1431 1429 1428 1427 1427 1425 1424 1423 1422 1419 1415 1413 1410 1408 1405 1402 1399 1397 1394 1390 1387 1383 1379